Location: Chaumontel
(49.1247°N, 2.4324°E)
Time: 00:46:17
(UTC+00:00)

IRIDIUM 103 - Pass Details

Date: 18 May 2025
Orbit: 775 x 779 km, 86.4° (Epoch: 12 June)

Event Time Altitude Azimuth Distance (km) Brightness Sun altitude
Exits shadow 23:14:14 - 102° (ESE) 2,659 6.9 -20.7°
Reaches altitude 10° 23:16:40 10° 79° (ENE) 2,337 6.8 -20.8°
Maximum altitude 23:17:22 10° 71° (ENE) 2,319 6.9 -20.8°
Drops below altitude 10° 23:18:06 10° 63° (ENE) 2,339 7.0 -20.8°
Sets 23:22:55 0° 23° (NNE) 3,274 8.6 -20.9°
